Location: Claremont
(33.9858°S, 18.4575°E)
Time: 20:44:53
(UTC+00:00)

BREEZE M DEB (TANK) - Pass Details

Date: 03 March 2021
Orbit: 292 x 11857 km, 49.5° (Epoch: 21 April)

Event Time Altitude Azimuth Distance (km) Brightness Sun altitude
Rises 17:58:34 0° 232° (SW) 2,250 6.8 -8.7°
Reaches altitude 10° 18:00:35 10° 234° (SW) 1,206 5.3 -9.1°
Maximum altitude 18:02:46 71° 319° (NW) 326 1.3 -9.6°
Enters shadow 18:05:06 12° 44° (NE) 1,288 3.7 -10.0°
